This is the latest recevied weather packets stored in our database for station/object G4KVI. If no packets are shown the sender has not sent any weather packets the latest 10 day(s).
| Time | Temp. | Humidity | Pressure | Rain* | Wind** | Luminosity | Snow |
|---|---|---|---|---|---|---|---|
| 1777289404 | 19.44° C | 35% | 1026.5 hPa | 0 mm | - | 680 W/m² | - |
| 1777289104 | 19.44° C | 35% | 1026.7 hPa | 0 mm | - | 680 W/m² | - |
| 1777288804 | 19.44° C | 35% | 1026.7 hPa | 0 mm | - | 680 W/m² | - |
| 1777288504 | 19.44° C | 38% | 1026.8 hPa | 0 mm | - | 652 W/m² | - |
| 1777288204 | 19.44° C | 38% | 1026.9 hPa | 0 mm | - | 652 W/m² | - |
| 1777287904 | 19.44° C | 38% | 1026.5 hPa | 0 mm | - | 652 W/m² | - |
| 1777287604 | 20° C | 38% | 1026.8 hPa | 0 mm | - | 650 W/m² | - |
| 1777287304 | 19.44° C | 37% | 1026.7 hPa | 0 mm | - | 647 W/m² | - |
| 1777287004 | 19.44° C | 37% | 1026.7 hPa | 0 mm | - | 647 W/m² | - |
| 1777286704 | 18.89° C | 38% | 1026.9 hPa | 0 mm | - | 643 W/m² | - |
| 1777286404 | 19.44° C | 38% | 1026.9 hPa | 0 mm | - | 625 W/m² | - |
| 1777286104 | 19.44° C | 38% | 1026.5 hPa | 0 mm | - | 625 W/m² | - |
| 1777285804 | 19.44° C | 38% | 1026.7 hPa | 0 mm | - | 625 W/m² | - |
| 1777285504 | 19.44° C | 38% | 1026.7 hPa | 0 mm | - | 624 W/m² | - |
| 1777285204 | 18.89° C | 37% | 1026.7 hPa | 0 mm | - | 618 W/m² | - |
| 1777284904 | 18.89° C | 38% | 1026.8 hPa | 0 mm | - | 607 W/m² | - |
| 1777284604 | 18.89° C | 38% | 1026.9 hPa | 0 mm | - | 605 W/m² | - |
| 1777284304 | 18.33° C | 38% | 1026.9 hPa | 0 mm | - | 597 W/m² | - |
| 1777284004 | 18.89° C | 36% | 1026.9 hPa | 0 mm | - | 589 W/m² | - |
| 1777283704 | 18.89° C | 38% | 1027 hPa | 0 mm | - | 585 W/m² | - |
| 1777283404 | 18.89° C | 37% | 1027 hPa | 0 mm | - | 576 W/m² | - |
| 1777283104 | 18.89° C | 36% | 1027 hPa | 0 mm | - | 529 W/m² | - |
| 1777282804 | 18.89° C | 37% | 1027.1 hPa | 0 mm | - | 556 W/m² | - |
| 1777282504 | 18.89° C | 37% | 1027.1 hPa | 0 mm | - | 546 W/m² | - |
| 1777282204 | 18.33° C | 37% | 1027.1 hPa | 0 mm | - | 535 W/m² | - |
* Rain latest hour (hover to see other rain measurements)
** Current wind speed in m/s (hover to see current wind gust speed)